RH
100 100 97 89 92 99 79 79 71 70 72 81 99 100 100 100 98 88 86 76 70 66 63 60 57 53 54 55 50 44 46 53 37 48 46 75 44 51 54 53 41 27 30 39 24
100 100 100 99 89 92 100 100 100 100 100 100 100 100 100 98 95 91 90 81 76 72 66 59 58 59 58 58 52 47 47 40 51 50 38 60 38 51 50 53 49 32 37 40 29
75 100 100 100 100 86 90 98 100 100 100 100 100 100 95 93 94 88 84 78 73 64 58 53 47 43 42 40 44 44 44 46 46 43 36 43 41 48 42 47 50 42 44 48 47
100 94 96 100 100 100 80 88 92 100 100 100 100 100 91 82 76 71 67 68 65 53 42 35 27 23 22 22 23 25 29 34 37 38 38 41 36 38 38 38 42 40 39 35 36
100 100 100 96 98 100 100 94 80 99 100 97 86 83 80 70 65 67 61 54 44 31 24 21 19 18 16 16 15 15 16 18 20 24 29 32 34 35 33 33 37 38 38 35 33
100 97 100 100 100 97 100 99 91 87 94 87 88 86 76 68 66 59 49 37 29 25 22 20 19 15 16 16 15 14 13 14 13 15 17 20 27 29 32 28 31 34 34 35 33
70 85 100 85 100 100 94 100 100 100 85 87 88 86 80 71 65 54 41 31 27 25 23 22 20 22 20 19 19 19 18 15 15 13 12 12 15 19 24 27 31 29 29 32 33
68 62 71 74 99 100 100 96 97 99 100 91 88 95 77 74 62 51 39 32 29 27 24 22 25 28 29 23 23 26 25 25 27 21 16 12 11 12 15 20 24 27 29 29 29
90 66 62 70 76 100 100 100 97 95 88 95 100 99 73 68 53 48 44 38 31 30 26 26 27 26 27 21 25 29 32 25 18 15 14 15 16 12 10 13 17 21 23 24 26
71 63 42 50 66 92 100 100 100 98 99 77 72 62 57 58 49 48 46 42 38 37 31 26 25 30 28 33 34 40 24 16 14 10 10 9 9 13 12 10 11 15 18 20 21
32 26 22 27 39 59 100 100 100 100 99 94 76 58 55 57 52 54 52 48 43 38 30 26 26 30 32 35 40 43 22 18 13 10 9 8 8 9 11 14 11 10 13 16 19
14 12 11 13 22 38 80 100 100 100 100 100 96 86 66 67 70 62 52 49 41 35 33 31 29 28 33 34 42 45 29 21 15 12 10 8 8 8 9 11 16 14 12 12 15
11 9 10 12 12 28 43 93 99 99 100 100 100 96 98 73 76 70 58 54 44 36 32 37 35 34 34 35 44 49 43 26 21 15 12 10 9 9 9 10 13 18 18 14 14
11 9 10 13 14 18 29 64 96 78 100 100 100 100 97 91 81 79 72 64 52 38 32 37 40 42 41 39 45 51 51 43 28 24 19 12 11 10 10 10 11 19 24 21 16
10 10 10 12 15 17 28 40 94 83 71 100 100 100 97 92 87 82 73 71 60 50 37 40 40 46 53 44 44 51 55 56 52 31 24 25 14 11 12 11 13 20 26 23 20
10 10 10 12 13 16 24 38 98 78 67 100 100 100 100 98 91 92 80 75 70 55 44 46 40 54 58 55 46 53 55 59 60 55 40 30 28 21 15 14 16 24 32 30 27
9 9 10 13 16 15 21 34 83 63 70 100 100 100 100 100 98 94 88 80 66 56 50 46 43 57 63 54 55 48 62 63 60 58 54 53 41 29 33 33 26 25 32 40 44
8 8 9 13 16 16 17 28 47 82 84 100 100 100 100 100 100 100 100 94 84 76 65 47 44 66 68 54 63 53 50 66 69 54 50 46 49 51 43 45 39 36 36 36 34
7 8 9 13 16 16 17 18 31 81 98 100 100 100 100 100 100 100 100 100 92 89 82 71 56 64 79 58 63 63 51 47 53 51 48 44 48 50 46 48 53 56 62 57 50
7 7 8 12 15 15 15 15 36 70 78 96 96 100 100 100 100 100 100 100 100 99 88 87 86 71 91 81 60 74 64 53 46 47 46 42 38 34 33 35 41 50 58 58 53
6 6 10 12 16 14 14 15 28 50 76 98 97 97 100 100 100 100 100 100 100 100 98 85 75 79 90 99 72 71 78 73 53 51 58 50 42 33 30 30 32 37 37 32 32
6 6 10 11 14 15 17 18 24 41 70 96 100 90 100 100 100 100 100 100 100 100 95 95 87 84 95 100 96 70 66 63 71 68 61 54 68 39 40 34 34 37 35 38 40
6 6 8 8 10 14 16 18 20 30 57 100 100 90 100 100 100 100 100 100 100 100 100 93 90 89 77 87 100 96 61 66 67 73 71 61 60 65 45 43 45 41 40 41 44
5 7 8 7 10 16 17 18 20 35 46 71 100 95 100 100 100 100 100 100 100 100 100 90 82 82 87 81 83 100 97 82 72 75 63 76 54 54 46 56 52 45 42 40 43
6 7 8 7 10 16 18 17 18 33 50 60 100 91 100 100 100 100 100 100 100 100 95 94 85 79 76 74 73 84 100 99 91 70 73 68 89 44 46 50 49 47 46 49 52
7 7 9 8 10 15 14 13 17 27 51 68 100 100 100 100 100 100 100 100 98 98 90 95 86 80 74 78 79 69 68 85 93 91 68 55 61 50 56 51 46 47 45 50 60
7 6 8 10 12 14 14 16 20 24 48 78 100 100 98 100 100 100 100 100 100 97 94 94 100 100 85 73 72 70 71 52 57 65 85 80 55 49 47 48 50 51 54 61 66
Wind_Speed
25 24 21 21 21 18 17 19 21 23 26 29 30 31 30 28 27 28 28 29 29 29 29 28 29 30 31 32 34 36 37 38 35 34 33 33 35 33 33 34 35 31 34 43 48
32 29 27 25 24 23 22 21 23 25 26 30 31 31 29 28 30 32 31 31 31 32 33 34 35 35 36 37 40 40 41 41 43 41 39 40 39 36 38 36 36 33 35 39 41
40 36 34 31 31 28 29 28 28 28 29 30 31 32 32 32 31 31 31 32 34 35 36 37 38 40 40 42 43 43 45 45 47 48 46 44 45 42 42 40 39 37 38 40 42
50 48 41 39 37 36 35 35 35 34 33 33 32 32 32 31 32 31 33 35 36 37 40 40 41 42 44 45 47 48 49 50 51 52 51 51 50 50 48 44 44 43 45 42 40
52 51 53 45 45 43 42 42 42 40 38 37 36 35 34 34 36 37 38 38 39 40 40 40 41 43 45 48 49 51 53 55 57 58 57 56 56 55 54 51 50 50 49 47 46
58 57 57 58 53 52 50 48 47 48 46 44 43 40 39 40 41 41 39 40 40 41 41 42 43 44 46 48 51 52 54 57 60 62 62 63 62 60 61 55 56 56 54 53 51
59 68 69 64 62 61 60 56 56 54 53 50 48 45 44 46 46 44 43 42 41 42 42 43 43 44 45 46 47 49 52 55 58 61 63 66 67 68 63 63 63 60 59 58 56
64 66 70 74 75 69 68 67 62 60 59 58 55 50 50 51 50 47 46 45 44 43 43 43 41 43 43 44 44 46 47 49 55 57 61 65 69 71 70 69 67 66 64 61 60
81 78 77 76 81 83 76 74 71 66 62 59 59 54 54 53 52 50 47 47 46 45 43 41 43 42 42 42 41 40 43 45 50 53 57 58 62 69 72 73 71 70 67 66 64
92 90 86 85 85 89 88 81 78 74 68 63 60 57 58 56 54 52 51 50 49 47 45 42 41 40 38 36 35 37 38 40 43 49 51 55 56 61 67 73 74 72 70 69 67
89 86 87 89 93 94 94 89 85 80 74 69 64 62 61 59 57 54 53 52 51 48 43 40 39 40 34 32 32 33 34 36 39 40 42 47 50 55 59 65 72 73 74 72 71
77 76 75 84 97 102 100 97 89 85 80 74 70 67 64 62 58 57 56 53 52 47 42 39 39 38 37 33 31 33 30 33 34 32 33 38 42 47 52 57 62 69 73 73 74
69 68 68 74 88 104 108 102 97 92 86 81 74 69 70 66 61 59 58 55 53 49 43 40 40 37 37 36 31 32 28 27 27 26 26 27 35 40 44 49 53 57 64 72 75
65 66 63 66 77 96 109 108 103 97 91 83 81 73 69 70 63 62 59 57 56 51 46 41 42 37 36 35 31 31 27 24 22 21 21 17 24 29 35 41 45 48 53 61 69
61 63 59 61 69 85 104 114 107 100 94 87 83 76 73 72 68 66 63 60 56 54 49 45 43 39 37 35 32 30 29 25 21 18 16 15 15 21 26 34 39 42 43 46 53
59 59 57 58 66 78 96 115 112 107 95 87 82 80 78 74 72 70 66 62 59 56 51 50 44 41 39 36 33 30 29 28 26 20 16 15 12 9 15 24 32 37 38 38 41
58 58 56 59 66 74 90 112 117 112 96 89 82 83 83 78 76 74 70 66 62 58 54 53 45 42 39 38 35 31 27 26 27 24 22 19 16 15 11 11 16 27 35 38 41
59 59 58 59 68 77 87 108 122 107 100 95 87 87 86 83 80 77 73 70 64 60 55 52 48 43 40 40 38 33 29 26 25 24 23 21 21 18 19 19 21 24 29 33 37
60 61 57 60 72 78 89 103 115 112 105 99 93 87 88 85 84 81 77 73 67 63 57 53 50 46 41 40 40 38 34 31 28 27 25 24 22 24 24 24 28 31 35 37 40
58 60 57 63 73 80 88 94 106 116 112 104 100 93 92 89 87 85 81 77 72 69 60 57 54 49 44 42 43 42 40 36 33 32 32 32 30 31 29 31 33 37 42 44 45
54 57 60 63 75 81 84 86 101 114 112 106 105 98 93 91 89 88 83 80 75 70 65 62 56 53 46 46 45 45 46 43 39 38 38 39 38 37 35 35 37 40 45 46 49
49 51 62 66 73 80 81 86 96 110 113 110 108 104 96 95 90 88 85 81 78 74 70 66 60 57 53 49 48 50 49 49 47 46 45 42 46 43 40 38 39 43 44 46 51
45 48 63 67 69 69 79 87 92 106 113 111 110 107 99 94 91 88 84 83 81 78 73 69 63 60 57 53 51 53 54 52 52 52 52 47 48 47 45 45 49 50 49 50 54
44 43 57 60 62 72 82 88 89 101 111 113 111 108 101 95 93 88 82 82 82 78 77 73 67 64 61 59 56 53 55 55 54 56 54 59 56 56 51 54 56 53 54 57 60
41 39 51 54 62 70 82 85 87 99 104 112 112 107 101 96 92 86 83 83 81 78 78 74 70 66 64 62 61 60 59 57 59 62 60 65 63 63 60 60 63 61 63 65 67
41 38 47 50 63 71 79 80 85 98 104 109 110 107 106 99 93 93 89 88 86 81 75 74 71 71 68 64 64 64 66 67 63 66 66 67 71 67 69 68 69 69 69 72 73
44 38 46 51 62 70 74 77 83 93 103 109 110 109 108 102 98 94 93 90 85 81 76 72 70 73 71 71 69 63 72 70 70 70 68 74 75 74 74 73 73 72 74 75 77
Wind_Direction
280 281 282 271 261 250 243 229 224 217 211 204 200 203 207 211 219 222 227 232 237 238 240 243 246 248 251 254 252 250 250 251 248 251 248 248 242 243 243 242 244 234 228 238 240
269 268 268 269 256 251 236 233 223 217 214 212 210 212 217 222 224 227 236 238 238 241 245 247 250 252 253 254 254 254 254 254 253 253 247 244 246 244 242 239 242 236 236 240 242
276 262 259 257 254 248 244 232 230 226 223 224 224 226 226 229 231 234 240 243 245 248 253 257 259 259 258 256 255 254 253 252 253 252 251 248 247 243 242 238 239 240 242 239 240
269 268 256 251 247 246 242 241 238 233 233 234 233 232 232 235 242 244 247 250 251 253 258 259 261 261 261 260 258 257 256 255 253 252 252 251 249 246 244 239 237 239 243 241 241
266 264 259 251 244 241 239 239 239 237 236 236 236 236 239 242 245 248 251 253 256 259 262 265 266 266 265 263 261 260 258 256 255 253 252 251 250 249 246 240 240 238 242 243 243
262 260 258 254 247 242 237 237 236 237 237 237 238 240 242 245 248 252 255 256 257 261 265 268 270 271 270 269 267 266 264 260 257 254 252 250 249 248 247 243 244 241 241 243 244
256 254 255 252 250 243 239 235 236 236 238 238 239 241 244 247 250 253 254 255 259 263 266 269 273 273 274 272 271 270 267 265 261 256 253 249 249 247 246 245 244 243 242 244 245
276 265 251 248 248 246 240 237 234 236 237 237 239 240 242 246 248 251 253 256 259 262 268 269 275 274 278 276 275 274 269 266 265 261 257 253 248 246 245 243 243 245 245 244 246
284 274 263 247 243 243 242 237 234 232 235 238 239 238 240 242 246 249 252 255 258 263 268 270 276 279 280 280 279 273 272 270 268 264 261 257 250 245 242 243 242 243 244 246 247
285 274 263 249 238 236 239 237 232 231 231 233 236 234 237 243 246 249 252 255 258 263 269 270 278 281 284 285 280 281 278 278 275 270 264 257 252 247 243 241 242 243 244 245 248
279 267 257 245 235 228 230 233 232 229 229 229 232 232 238 241 245 248 251 254 257 261 266 269 277 281 286 290 281 286 286 289 286 278 267 258 252 247 244 241 241 241 244 245 248
273 265 256 245 235 223 222 227 229 227 227 227 228 233 236 238 243 245 249 253 256 258 261 266 274 279 281 292 287 287 294 297 298 294 278 262 254 248 244 243 241 241 242 245 248
272 266 257 246 234 225 218 220 224 225 224 226 226 230 235 238 239 244 248 251 255 256 258 265 270 276 281 286 292 288 299 303 309 308 291 269 255 249 245 244 242 242 243 244 246
271 265 257 246 234 226 218 217 220 222 222 223 225 227 231 236 239 242 245 250 252 255 255 262 269 274 278 284 290 285 292 307 313 314 314 282 260 248 246 245 241 241 243 246 246
269 262 252 241 232 225 219 215 218 220 219 221 224 223 227 233 236 240 244 248 252 254 254 258 266 271 276 277 284 287 282 293 307 315 314 315 283 258 247 244 239 239 246 250 248
266 258 248 238 233 224 219 214 216 218 215 219 223 224 226 229 233 238 243 247 250 253 255 257 261 268 272 272 278 283 280 282 291 300 308 309 306 292 266 249 240 241 248 250 248
260 256 244 234 229 223 219 215 214 215 213 217 222 225 226 227 230 235 240 244 247 251 253 255 257 262 267 268 271 278 281 280 281 286 291 298 301 294 285 270 255 249 252 255 256
257 253 243 230 226 222 219 215 214 212 213 214 219 223 226 226 229 232 236 241 244 247 251 253 254 257 262 265 265 270 276 277 281 281 283 284 285 284 283 280 273 265 262 262 263
255 248 241 229 224 223 220 217 213 211 212 212 217 221 225 226 228 230 232 237 241 245 247 251 252 254 258 263 262 264 269 274 275 279 281 281 281 281 275 275 274 273 272 270 270
251 243 237 228 224 222 221 217 211 213 211 211 214 219 223 225 228 230 232 235 238 242 246 250 251 253 255 259 261 261 265 267 271 275 280 283 286 285 285 284 281 280 279 278 279
250 239 233 226 223 222 220 216 211 212 212 211 214 216 221 224 226 229 231 235 237 241 243 247 248 252 252 255 258 260 262 264 267 268 276 281 284 285 284 286 284 282 281 283 283
247 236 230 226 222 220 218 216 212 213 210 211 214 216 218 222 224 229 230 233 237 239 241 245 248 252 252 255 257 259 261 264 264 268 270 276 281 283 287 287 283 281 284 286 288
246 233 228 226 222 221 217 217 213 213 211 211 214 217 218 221 224 226 230 233 235 238 241 244 245 246 251 255 258 259 262 263 266 267 267 272 274 280 282 284 284 284 287 288 293
247 234 229 227 219 216 218 216 214 212 213 211 214 216 219 219 225 227 228 232 236 238 241 243 244 246 249 254 256 259 262 264 264 265 270 271 275 276 282 281 284 290 294 295 296
247 235 230 224 217 216 218 218 214 213 214 212 213 216 219 220 224 226 229 232 234 237 239 241 243 246 248 251 255 258 261 264 266 267 268 270 275 278 278 281 285 288 294 294 296
243 234 227 223 214 216 219 218 214 212 213 212 212 216 219 220 222 225 227 230 232 234 237 240 244 247 249 251 253 256 260 260 265 269 271 273 272 275 278 281 284 287 291 293 295
241 233 224 215 214 215 219 218 215 213 212 212 212 216 219 221 223 226 227 231 233 234 237 239 243 246 247 251 253 257 259 262 266 268 270 272 275 277 279 281 283 287 288 291 294